Regional Weather Roundup
Issued by NWS

Home | Current Version | Previous Version | Graphics & Text | Print | Product List | Glossary On
Versions: 1 2 3 4 5 6 7 8 9 10 11 12 13 14 15 16 17 18 19 20 21 22 23 24 25 26 27 28 29 30 31 32 33 34 35 36 37 38 39 40 41 42 43 44 45 46 47 48 49 50
000
ASUS43 KIND 272159
RWRIN

WEATHER ROUNDUP FOR INDIANA
NATIONAL WEATHER SERVICE INDIANAPOLIS IN
500 PM EST SAT DEC 27 2014

NOTE: "FAIR" INDICATES FEW OR NO CLOUDS BELOW 12,000 FEET WITH NO
SIGNIFICANT WEATHER AND/OR OBSTRUCTIONS TO VISIBILITY.

* - STATION DOES NOT REPORT WEATHER SUCH AS PRECIPITATION OR FOG.

+ - STATION NOT QUALITY CONTROLLED BY THE NATIONAL WEATHER SERVICE.
    USE DATA WITH CAUTION...ESPECIALLY DEWPOINT AND RELATIVE
    HUMIDITY OBSERVATIONS.

INZ001>003-010>013-019-020-272300-
NORTHWEST INDIANA

CITY           SKY/WX    TMP DP  RH WIND       PRES   REMARKS
GARY /AIRPORT/ CLOUDY    39  27  60 W23G41    30.05R
VALPARAISO     CLOUDY    37  34  87 W15       30.05R

$$

LMZ046-743>745-272300-
SOUTHERN LAKE MICHIGAN

STATION/POSITION TIME  TEMP WIND        PRES
                       AIR  DIR/SP/G
                 (UTC) (F)  (DEG/KT/KT) (MB)
MICHIGAN CITY    2100   38  220/ 24/ 27   N/A

$$

INZ004-005-014>016-021>024-272300-
NORTH CENTRAL INDIANA

CITY           SKY/WX    TMP DP  RH WIND       PRES   REMARKS
GOSHEN         CLOUDY    42  40  92 W17       30.03R FOG
PERU/GRISSOM   LGT RAIN  46  46 100 W18       30.04S FOG
SOUTH BEND     LGT RAIN  41  34  76 W24G31    30.04R

$$

INZ006>009-017-018-025>027-272300-
NORTHEAST INDIANA

CITY           SKY/WX    TMP DP  RH WIND       PRES   REMARKS
ANGOLA *+      CLOUDY    46  45  93 W17       29.98R
FORT WAYNE     DRIZZLE   47  44  90 SW16      30.04R

$$

INZ028-029-035-036-043>045-051>053-272300-
WEST CENTRAL INDIANA

CITY           SKY/WX    TMP DP  RH WIND       PRES   REMARKS
GREENCASTLE +  CLOUDY    45  43  93 S3        30.06F FOG
LAFAYETTE      CLOUDY    40  39  97 W9        30.07F FOG
TERRE HAUTE    LGT RAIN  45  43  93 NW15G22   30.09F FOG

$$

INZ030>032-037>040-046>048-054>057-064-065-272300-
CENTRAL INDIANA

CITY           SKY/WX    TMP DP  RH WIND       PRES   REMARKS
COLUMBUS       RAIN      46  45  93 SW6       30.10R FOG
INDIANAPOLIS   DRZL/FOG  46  45  96 W12       30.08R VSB 1/2
-EAGLE CREEK   CLOUDY    46  46 100 SW6       30.08R FOG
KOKOMO *+      CLOUDY    46  45  93 W15       30.06R
MT COMFORT *+  CLOUDY    46 N/A N/A SW9       30.08R
SHELBYVILLE    CLOUDY    48  45  89 SW8       30.08R FOG

$$

INZ033-034-041-042-049-050-058-059-272300-
EAST CENTRAL INDIANA

CITY           SKY/WX    TMP DP  RH WIND       PRES   REMARKS
MUNCIE         LGT RAIN  47  45  93 SW8       30.06R FOG

$$

INZ060-061-067>069-081>083-085>088-272300-
SOUTHWEST INDIANA

CITY           SKY/WX    TMP DP  RH WIND       PRES   REMARKS
EVANSVILLE     CLOUDY    50  48  93 S6        30.13R FOG
HUNTINGBURG *+ CLOUDY    46  45  93 S7        30.12S

$$

INZ062-063-066-070>080-084-089>092-272300-
SOUTH CENTRAL AND SOUTHEAST INDIANA

CITY           SKY/WX    TMP DP  RH WIND       PRES   REMARKS
BLOOMINGTON    LGT RAIN  47  46  97 SW6       30.09S FOG

$$




USA.gov is the U.S. government's official web portal to all federal, state and local government web resources and services.